Home   Weather   Sierra Vista   Past weeks
Flag for USA

Past Weather in Sierra Vista, Arizona, USA — Yesterday and Last 2 Weeks

Now
69 °F

Passing clouds.


Feels Like: 69 °F
Forecast: 75 / 47 °F
Wind: 15 mph from South

Location: Fort Huachuca

Current Time: Nov 17, 2019 at 1:39:38 pm

Latest Report: Nov 17, 2019 at 12:58 pm


Visibility: 10 mi

Pressure: 30.02 "Hg (25.54 "Hg at 1390m altitude)

Humidity: 20%

Dew Point: 26 °F

Location of Sierra VistaLocation

Past Weather in Sierra Vista — Graph

°F

Sierra Vista Temperature Yesterday

Maximum temperature yesterday: 75 °F (at 2:58 pm)
Minimum temperature yesterday: 47 °F (at 6:58 am)
Average temperature yesterday: 62 °F

High & Low Weather Summary for the Past Weeks

 TemperatureHumidityPressure
High79 °F (Nov 5, 1:22 pm)91% (Nov 12, 12:58 am)30.27 "Hg (Nov 12, 12:58 am)
Low37 °F (Nov 13, 6:58 am)12% (Nov 2, 2:58 pm)29.85 "Hg (Nov 6, 2:58 pm)
Average61 °F44%30.02 "Hg
* Reported Nov 2 12:30 pm — Nov 17 12:18 pm, Sierra Vista. Weather by CustomWeather, © 2019

Note: Actual official high and low records may vary slightly from our data, if they occured in-between our weather recording intervals... More about our weather records

Advertising

Sierra Vista Weather History for the Previous 24 Hours

Scroll right to see more
 ConditionsComfort  
Time TempWeatherWind HumidityBarometerVisibility
12:18 pm
Sun, Nov 17
70 °FSunny.9 mph27%30.02 "Hg10 mi
11:58 am70 °FSunny.12 mph28%30.04 "Hg10 mi
10:58 am68 °FSunny.5 mph28%30.06 "Hg10 mi
9:58 am65 °FSunny.5 mph28%30.05 "Hg10 mi
8:58 am64 °FSunny.6 mph28%30.04 "Hg10 mi
8:24 am61 °FSunny.No wind31%30.04 "Hg10 mi
7:58 am56 °FSunny.No wind41%30.03 "Hg10 mi
6:58 am47 °FSunny.No wind53%30.04 "Hg9 mi
5:58 am49 °FClear.3 mph51%30.01 "Hg10 mi
4:58 am49 °FClear.6 mph50%29.99 "Hg10 mi
3:58 am50 °FClear.No wind46%29.99 "Hg10 mi
2:58 am53 °FClear.7 mph41%29.97 "Hg10 mi
1:58 am53 °FClear.5 mph41%29.98 "Hg10 mi
12:58 am53 °FClear.6 mph42%29.97 "Hg10 mi
11:58 pm
Sat, Nov 16
56 °FClear.No wind39%29.98 "Hg10 mi
10:58 pm56 °FClear.No wind41%29.98 "Hg10 mi
9:58 pm58 °FClear.8 mph39%29.97 "Hg10 mi
8:58 pm60 °FClear.8 mph36%29.97 "Hg10 mi
7:58 pm61 °FClear.9 mph36%29.99 "Hg10 mi
6:58 pm61 °FClear.9 mph39%30.00 "Hg10 mi
5:58 pm63 °FClear.No wind34%29.97 "Hg10 mi
4:58 pm71 °FPartly sunny.8 mph25%29.94 "Hg10 mi
3:58 pm74 °FScattered clouds.7 mph22%29.91 "Hg10 mi
2:58 pm75 °FScattered clouds.13 mph22%29.90 "Hg10 mi
1:58 pm74 °FSunny.8 mph22%29.90 "Hg10 mi
1:21 pm73 °FSunny.No wind22%29.92 "Hg9 mi
Weather by CustomWeather, © 2019

See weather overview